Regional Weather Roundup
Issued by NWS

Home | Current Version | Previous Version | Text Only | Print | Product List | Glossary On
Versions: 1 2 3 4 5 6 7 8 9 10 11 12 13 14 15 16 17 18 19 20 21 22 23 24 25 26 27 28
000
ASUS44 KLIX 210713
RWRLA
LOUISIANA WEATHER ROUNDUP
NATIONAL WEATHER SERVICE NEW ORLEANS LA
200 AM CDT SAT OCT 21 2017

NOTE: "FAIR" INDICATES FEW OR NO CLOUDS BELOW 12,000 FEET WITH NO
      SIGNIFICANT WEATHER AND/OR OBSTRUCTIONS TO VISIBILITY.
      SKY/WX - SKY CONDITION AND SIGNIFICANT WEATHER.
      TMP - AIR TEMPERATURE.    DP   - DEWPOINT TEMPERATURE.
      RH  - RELATIVE HUMIDITY.  PRES - PRESSURE.
      HX  - HEAT INDEX.         WCI  - WIND CHILL INDEX.

*  THESE STATIONS ARE NOT NWS OR FAA STATIONS AND ARE NOT UNDER
   NWS QUALITY CONTROL.

LAZ040-048-061>063-065-066-069-210800-
SOUTHEAST LOUISIANA

CITY           SKY/WX    TMP DP  RH WIND       PRES   REMARKS
N.O. INTL ARPT CLOUDY    76  72  87 SE13      30.04R
N.O. LAKEFRONT CLOUDY    76  70  82 SE9       30.04S
N.O. DOWNTOWN* FAIR      77  70  79 SE8       30.05R
RESERVE*       FAIR      76  72  86 SE9       30.03F
SLIDELL        CLOUDY    70  67  90 N3        30.06R
BATON ROUGE    CLOUDY    70  68  93 E7        30.04S
BOOTHVILLE     MOCLDY    81  70  69 SE9       30.05F
BELLE CHASSE   NOT AVBL
BOGALUSA*      CLOUDY    67  64  87 N3        30.09S
GALLIANO*      CLOUDY    77  69  75 E7        30.02F
NEW ROADS*     FAIR      70  68  91 SE8       30.04S
GONZALES*      PTSUNNY   73  71  92 CALM      30.03S
HAMMOND*       CLOUDY    70  66  88 E6        30.05S
HOUMA*         MOCLDY   N/A N/A N/A E8        30.02S
PORT FOURCHON* PTSUNNY   79  70  73 SE20G28   30.01F

$$

LAZ041-044-053-054-210800-
SOUTHWEST LOUISIANA

CITY           SKY/WX    TMP DP  RH WIND       PRES   REMARKS
LAKE CHARLES   CLOUDY    71  70  96 E6        29.99F
LAFAYETTE      PTCLDY    72  71  97 VRB3      30.02S
PATTERSON      MOCLDY    74  72  93 E5        30.03S
SALT POINT       N/A     75  72  90 VRB5      30.00S
NEW IBERIA     MOCLDY    73  69  87 E7        30.02S
CHENAULT AIRPK   N/A     69  69  98 E5        30.00S

$$

LAZ027-028-210800-
CENTRAL LOUISIANA

CITY           SKY/WX    TMP DP  RH WIND       PRES   REMARKS
FORT POLK      CLOUDY    69  68  95 E6        30.01S
ALEXANDRIA INT CLOUDY    71  68  90 SE10      30.00F
ALEXANDRIA     CLOUDY    68  67  96 CALM      30.03S

$$

LAZ001-002-210800-
NORTHWEST LOUISIANA

CITY           SKY/WX    TMP DP  RH WIND       PRES   REMARKS
SHREVEPORT     CLOUDY    68  65  90 SE10      29.99F
BARKSDALE AFB  MOCLDY    64  63  97 SE6       29.99F
DTN SHREVEPORT CLOUDY    67  63  87 SE9       30.00F

$$

LAZ014-016-210800-
NORTHEAST LOUISIANA

CITY           SKY/WX    TMP DP  RH WIND       PRES   REMARKS
MONROE         PTCLDY    67  64  90 CALM      30.05S
TALLULAH       CLOUDY    70  65  84 SE8       30.06S

$$





USA.gov is the U.S. government's official web portal to all federal, state and local government web resources and services.